This demonstration page uses our WeatherBlox Daily Observations layout. Learn more.

Left ArrowRight Arrow

39.01783, -85.05884

Hourly Observations for August 20, 2015

Temp ( °F °C ) Dew Point ( °F °C ) Humidity (%) Winds ( mph kmh ) Pressure ( in mb ) Visibility ( mi km ) Precip ( " mm )
12:24 am 00:24 Cloudy 72 22 70 21 94 94 SW 6 9 29.8 1009 10 16.0934 N/A
12:52 am 00:52 Cloudy with Light Rain 71 21.7 70 21.1 96 96 SW 6 9 29.79 1009 7 11.26538 N/A
1:27 am 01:27 Cloudy 72 22 70 21 94 94 SSW 6 9 29.8 1009 9 14.48406 0.01 0.254
1:52 am 01:52 Cloudy with Rain 71 21.7 70 21.1 96 96 SSW 7 11 29.79 1009 4 6.43736 0.04 1.016
2:23 am 02:23 Cloudy with Rain 72 22 70 21 94 94 SSW 6 9 29.8 1009 4 6.43736 0.06 1.524
2:52 am 02:52 Cloudy with Light Rain 71 21.7 70 21.1 96 96 SW 6 9 29.78 1009 8 12.87472 0.07 1.778
3:12 am 03:12 Cloudy with Light Rain 70 21 66 19 88 88 W 12 19 29.8 1009 10 16.0934 N/A
3:52 am 03:52 Cloudy 69 20.6 66 18.9 90 90 W 12 19 29.8 1009 10 16.0934 N/A
4:52 am 04:52 Cloudy 68 20 65 18.3 90 90 W 8 13 29.82 1010 10 16.0934 N/A
5:14 am 05:14 Cloudy 68 20 64 18 88 88 W 7 11 29.83 1010 10 16.0934 N/A
5:44 am 05:44 Cloudy with Light Rain 66 19 64 18 94 94 WNW 13 20 29.83 1010 4 6.43736 N/A
5:52 am 05:52 Cloudy with Light Rain 66 18.9 63 17.2 90 90 WNW 16 26 29.83 1010 9 14.48406 0.01 0.254
6:18 am 06:18 Cloudy 66 19 63 17 88 88 W 14 22 29.85 1011 10 16.0934 N/A
6:52 am 06:52 Cloudy 64 17.8 61 16.1 90 90 W 13 20 29.87 1012 10 16.0934 N/A
7:08 am 07:08 Mostly Cloudy 63 17 61 16 94 94 W 12 19 29.88 1012 10 16.0934 N/A
7:52 am 07:52 Mostly Sunny 63 17.2 59 15 87 87 W 14 22 29.91 1013 10 16.0934 N/A
8:52 am 08:52 Mostly Sunny 64 17.8 60 15.6 87 87 W 10 17 29.93 1013 10 16.0934 N/A
9:52 am 09:52 Mostly Sunny 66 18.9 58 14.4 75 75 W 13 20 29.95 1014 10 16.0934 N/A
10:52 am 10:52 Partly Cloudy 69 20.6 59 15 70 70 W 12 19 29.96 1015 10 16.0934 N/A
11:52 am 11:52 Partly Cloudy 72 22.2 59 15 64 64 W 12 19 29.97 1015 10 16.0934 N/A
12:52 pm 12:52 Partly Cloudy 73 22.8 57 13.9 57 57 W 12 19 29.98 1015 10 16.0934 N/A
1:52 pm 13:52 Partly Cloudy 73 22.8 57 13.9 57 57 W 14 22 29.98 1015 10 16.0934 N/A
2:52 pm 14:52 Mostly Sunny 76 24.4 56 13.3 50 50 W 10 17 29.97 1015 10 16.0934 N/A
3:52 pm 15:52 Partly Cloudy 76 24.4 57 13.9 52 52 W 12 19 29.97 1015 10 16.0934 N/A
4:52 pm 16:52 Mostly Sunny 76 24.4 56 13.3 50 50 WSW 10 17 29.97 1015 10 16.0934 N/A
5:52 pm 17:52 Mostly Sunny 76 24.4 55 12.8 48 48 W 12 19 29.97 1015 10 16.0934 N/A
6:52 pm 18:52 Mostly Sunny 74 23.3 55 12.8 52 52 WSW 8 13 29.99 1016 10 16.0934 N/A
7:52 pm 19:52 Partly Cloudy 72 22.2 55 12.8 55 55 W 6 9 29.99 1016 10 16.0934 N/A
8:52 pm 20:52 Partly Cloudy 68 20 55 12.8 63 63 WSW 3 6 30.02 1017 10 16.0934 N/A
9:52 pm 21:52 Mostly Clear 62 16.7 57 13.9 84 84 S 3 6 30.03 1017 10 16.0934 N/A
10:52 pm 22:52 Partly Cloudy 61 16.1 56 13.3 84 84 N N/A 30.05 1018 10 16.0934 N/A
11:52 pm 23:52 Partly Cloudy 59 15 56 13.3 90 90 N N/A 30.07 1018 10 16.0934 N/A

Powered by AerisWeather